• în România
  • Lista ţărilor
  • Pe 7 zile
  • Temperatura apei
  • Hartă satelitară
  • Meteo pe hartă
  • Widget-uri
  • user-avatar
    Intrare

    Meteo pe oră la Qui Nhon

    Astăzi, 23 Mai, Miercuri

    Timp Temperatura Precipitaţii Vânt Presiune Umiditate
    00:00 +28°C° 0 mm 1 m/s 756 mmHg 89%
    01:00 +27°C° 0 mm 1 m/s 756 mmHg 90%
    02:00 +27°C° 0 mm 1 m/s 756 mmHg 90%
    03:00 +27°C° 0 mm 1 m/s 756 mmHg 91%
    04:00 +27°C° 0 mm 1 m/s 755 mmHg 92%
    05:00 +28°C° 0 mm 1 m/s 755 mmHg 86%
    06:00 +29°C° 0 mm 1 m/s 756 mmHg 81%
    07:00 +31°C° 0 mm 1 m/s 756 mmHg 71%
    08:00 +32°C° 0 mm 1 m/s 756 mmHg 64%
    09:00 +34°C° 0 mm 1 m/s 756 mmHg 56%
    10:00 +37°C° 0 mm 2 m/s 756 mmHg 48%
    11:00 +37°C° 0 mm 2 m/s 755 mmHg 47%
    12:00 +38°C° 0 mm 3 m/s 755 mmHg 46%
    13:00 +39°C° 0 mm 3 m/s 755 mmHg 45%
    14:00 +38°C° 0 mm 3 m/s 754 mmHg 49%
    15:00 +37°C° 0 mm 4 m/s 754 mmHg 53%
    16:00 +36°C° 0 mm 4 m/s 754 mmHg 56%
    17:00 +34°C° 0 mm 3 m/s 754 mmHg 65%
    18:00 +31°C° 0 mm 2 m/s 754 mmHg 74%
    19:00 +29°C° 0 mm 2 m/s 754 mmHg 83%
    20:00 +28°C° 0 mm 2 m/s 755 mmHg 86%
    21:00 +28°C° 0 mm 1 m/s 755 mmHg 88%
    22:00 +27°C° 0 mm 1 m/s 756 mmHg 91%
    23:00 +27°C° 0 mm 1 m/s 755 mmHg 92%

    Mâine, 24 Mai, Joi

    Timp Temperatura Precipitaţii Vânt Presiune Umiditate
    00:00 +27°C° 0 mm 1 m/s 755 mmHg 93%
    01:00 +27°C° 0 mm 1 m/s 755 mmHg 94%
    02:00 +27°C° 0 mm 1 m/s 754 mmHg 95%
    03:00 +26°C° 0 mm 1 m/s 754 mmHg 95%
    04:00 +26°C° 0 mm 1 m/s 754 mmHg 95%
    05:00 +28°C° 0 mm 1 m/s 754 mmHg 88%
    06:00 +29°C° 0 mm 1 m/s 755 mmHg 80%
    07:00 +31°C° 0 mm 1 m/s 755 mmHg 73%
    08:00 +33°C° 0 mm 1 m/s 755 mmHg 64%
    09:00 +35°C° 0 mm 1 m/s 755 mmHg 54%
    10:00 +37°C° 0 mm 1 m/s 755 mmHg 45%
    11:00 +39°C° 0 mm 2 m/s 755 mmHg 43%
    12:00 +39°C° 0 mm 3 m/s 754 mmHg 41%
    13:00 +41°C° 0 mm 4 m/s 754 mmHg 39%
    14:00 +40°C° 0,1 mm 4 m/s 754 mmHg 47%
    15:00 +37°C° 0,1 mm 4 m/s 753 mmHg 54%
    16:00 +36°C° 0,1 mm 4 m/s 753 mmHg 61%
    17:00 +34°C° 0,2 mm 4 m/s 753 mmHg 69%
    18:00 +32°C° 0,2 mm 4 m/s 753 mmHg 76%
    19:00 +29°C° 0,2 mm 3 m/s 754 mmHg 83%
    20:00 +29°C° 0,3 mm 3 m/s 754 mmHg 85%
    21:00 +29°C° 0,3 mm 3 m/s 755 mmHg 87%
    22:00 +28°C° 0,3 mm 3 m/s 755 mmHg 88%
    23:00 +28°C° 0,1 mm 3 m/s 755 mmHg 88%

    Poimâine, 25 Mai, Vineri

    Timp Temperatura Precipitaţii Vânt Presiune Umiditate
    00:00 +28°C° 0,1 mm 3 m/s 754 mmHg 89%
    01:00 +28°C° 0,1 mm 3 m/s 754 mmHg 89%
    02:00 +27°C° 0,2 mm 3 m/s 754 mmHg 89%
    03:00 +27°C° 0,2 mm 3 m/s 754 mmHg 89%
    04:00 +27°C° 0,2 mm 3 m/s 754 mmHg 89%
    05:00 +28°C° 0,2 mm 3 m/s 754 mmHg 85%
    06:00 +29°C° 0,2 mm 2 m/s 754 mmHg 81%
    07:00 +30°C° 0,2 mm 2 m/s 755 mmHg 78%
    08:00 +33°C° 0 mm 3 m/s 755 mmHg 68%
    09:00 +35°C° 0 mm 3 m/s 755 mmHg 58%
    10:00 +37°C° 0 mm 3 m/s 755 mmHg 48%
    11:00 +39°C° 0 mm 3 m/s 755 mmHg 43%
    12:00 +42°C° 0 mm 4 m/s 754 mmHg 38%
    13:00 +44°C° 0 mm 4 m/s 753 mmHg 33%
    14:00 +41°C° 0 mm 4 m/s 753 mmHg 40%
    15:00 +38°C° 0 mm 4 m/s 753 mmHg 48%
    16:00 +36°C° 0 mm 5 m/s 752 mmHg 55%
    17:00 +34°C° 0,1 mm 4 m/s 753 mmHg 63%
    18:00 +33°C° 0,1 mm 4 m/s 753 mmHg 71%
    19:00 +30°C° 0,1 mm 4 m/s 753 mmHg 79%
    20:00 +30°C° 0,2 mm 4 m/s 754 mmHg 80%
    21:00 +29°C° 0,2 mm 4 m/s 754 mmHg 81%
    22:00 +29°C° 0,2 mm 4 m/s 755 mmHg 82%
    23:00 +29°C° 0 mm 4 m/s 755 mmHg 83%

    26 Mai, Sâmbătă

    Timp Temperatura Precipitaţii Vânt Presiune Umiditate
    00:00 +28°C° 0 mm 4 m/s 754 mmHg 83%
    01:00 +28°C° 0 mm 4 m/s 754 mmHg 83%
    02:00 +28°C° 0 mm 3 m/s 754 mmHg 83%
    03:00 +27°C° 0 mm 3 m/s 754 mmHg 83%
    04:00 +27°C° 0 mm 3 m/s 754 mmHg 82%
    05:00 +29°C° 0 mm 3 m/s 754 mmHg 76%
    06:00 +30°C° 0 mm 3 m/s 754 mmHg 69%
    07:00 +31°C° 0 mm 3 m/s 755 mmHg 63%
    08:00 +35°C° 0 mm 3 m/s 755 mmHg 53%
    09:00 +38°C° 0 mm 3 m/s 755 mmHg 44%
    10:00 +42°C° 0 mm 3 m/s 755 mmHg 34%
    11:00 +43°C° 0 mm 4 m/s 754 mmHg 31%
    12:00 +44°C° 0 mm 4 m/s 754 mmHg 29%
    13:00 +47°C° 0 mm 5 m/s 753 mmHg 26%
    14:00 +45°C° 0 mm 5 m/s 753 mmHg 31%
    15:00 +42°C° 0 mm 6 m/s 752 mmHg 36%
    16:00 +41°C° 0 mm 6 m/s 752 mmHg 41%
    17:00 +38°C° 0 mm 6 m/s 752 mmHg 51%
    18:00 +35°C° 0 mm 5 m/s 753 mmHg 62%
    19:00 +32°C° 0 mm 5 m/s 753 mmHg 72%
    20:00 +32°C° 0 mm 5 m/s 754 mmHg 76%
    21:00 +30°C° 0 mm 4 m/s 754 mmHg 79%
    22:00 +29°C° 0 mm 4 m/s 755 mmHg 82%
    23:00 +29°C° 0 mm 4 m/s 754 mmHg 82%

    27 Mai, Duminică

    Timp Temperatura Precipitaţii Vânt Presiune Umiditate
    00:00 +29°C° 0 mm 4 m/s 754 mmHg 82%
    01:00 +29°C° 0 mm 4 m/s 754 mmHg 82%
    02:00 +29°C° 0,4 mm 4 m/s 754 mmHg 82%
    03:00 +28°C° 0,4 mm 4 m/s 754 mmHg 81%
    04:00 +28°C° 0,4 mm 3 m/s 754 mmHg 80%
    05:00 +29°C° 0,4 mm 3 m/s 754 mmHg 76%
    06:00 +30°C° 0,4 mm 3 m/s 755 mmHg 71%
    07:00 +31°C° 0,4 mm 3 m/s 756 mmHg 66%
    08:00 +35°C° 0 mm 4 m/s 756 mmHg 58%
    09:00 +38°C° 0 mm 4 m/s 755 mmHg 49%
    10:00 +41°C° 0 mm 4 m/s 755 mmHg 41%
    11:00 +42°C° 0 mm 4 m/s 755 mmHg 38%
    12:00 +43°C° 0 mm 5 m/s 754 mmHg 35%
    13:00 +45°C° 0 mm 5 m/s 754 mmHg 32%
    14:00 +43°C° 0 mm 5 m/s 753 mmHg 36%
    15:00 +42°C° 0 mm 5 m/s 753 mmHg 39%
    16:00 +41°C° 0 mm 5 m/s 753 mmHg 43%
    17:00 +37°C° 0,1 mm 5 m/s 753 mmHg 54%
    18:00 +35°C° 0,1 mm 5 m/s 754 mmHg 65%
    19:00 +32°C° 0,1 mm 4 m/s 754 mmHg 76%
    20:00 +30°C° 0,1 mm 4 m/s 755 mmHg 80%
    21:00 +30°C° 0,1 mm 4 m/s 755 mmHg 83%
    22:00 +29°C° 0,1 mm 4 m/s 755 mmHg 87%
    23:00 +29°C° 0 mm 3 m/s 755 mmHg 87%

    28 Mai, Luni

    Timp Temperatura Precipitaţii Vânt Presiune Umiditate
    00:00 +29°C° 0 mm 3 m/s 755 mmHg 88%
    01:00 +28°C° 0 mm 3 m/s 754 mmHg 88%
    02:00 +28°C° 0 mm 3 m/s 754 mmHg 88%
    03:00 +28°C° 0 mm 3 m/s 754 mmHg 87%
    04:00 +28°C° 0 mm 2 m/s 754 mmHg 87%
    05:00 +29°C° 0 mm 2 m/s 755 mmHg 81%
    06:00 +30°C° 0 mm 3 m/s 755 mmHg 76%
    07:00 +33°C° 0 mm 3 m/s 755 mmHg 70%
    08:00 +36°C° 0 mm 3 m/s 755 mmHg 59%
    09:00 +39°C° 0 mm 3 m/s 755 mmHg 47%
    10:00 +43°C° 0 mm 3 m/s 756 mmHg 36%
    11:00 +43°C° 0 mm 4 m/s 755 mmHg 36%
    12:00 +43°C° 0 mm 5 m/s 754 mmHg 36%
    13:00 +42°C° 0 mm 5 m/s 754 mmHg 36%
    14:00 +40°C° 0,4 mm 5 m/s 754 mmHg 49%
    15:00 +36°C° 0,4 mm 4 m/s 753 mmHg 61%
    16:00 +34°C° 0,4 mm 4 m/s 753 mmHg 74%
    17:00 +31°C° 1,1 mm 3 m/s 754 mmHg 79%
    18:00 +30°C° 1,1 mm 3 m/s 754 mmHg 84%
    19:00 +29°C° 1,1 mm 2 m/s 755 mmHg 89%
    20:00 +29°C° 0,1 mm 2 m/s 755 mmHg 89%
    21:00 +29°C° 0,1 mm 2 m/s 755 mmHg 90%
    22:00 +28°C° 0,1 mm 2 m/s 756 mmHg 91%
    23:00 +28°C° 0,1 mm 2 m/s 755 mmHg 91%
    Arată mai mult